Year,Month,Day,Hour,Minute,Value (Times are PST for barometer in hPa)
2022,10,03,00,00,906.77
2022,10,03,00,01,906.77
2022,10,03,00,02,906.77
2022,10,03,00,03,906.77
2022,10,03,00,04,906.77
2022,10,03,00,05,906.77
2022,10,03,00,06,906.77
2022,10,03,00,07,906.77
2022,10,03,00,08,906.77
2022,10,03,00,09,906.77
2022,10,03,00,10,906.77
2022,10,03,00,11,906.77
2022,10,03,00,12,906.77
2022,10,03,00,13,906.77
2022,10,03,00,14,906.77
2022,10,03,00,15,906.77
2022,10,03,00,16,906.77
2022,10,03,00,17,906.77
2022,10,03,00,18,906.77
2022,10,03,00,19,906.77
2022,10,03,00,20,906.77
2022,10,03,00,21,906.77
2022,10,03,00,22,906.77
2022,10,03,00,23,906.77
2022,10,03,00,24,906.77
2022,10,03,00,25,906.77
2022,10,03,00,26,906.77
2022,10,03,00,27,906.77
2022,10,03,00,28,906.77
2022,10,03,00,29,906.77
2022,10,03,00,30,906.77
2022,10,03,00,31,906.77
2022,10,03,00,32,906.77
2022,10,03,00,33,906.77
2022,10,03,00,34,906.77
2022,10,03,00,35,906.77
2022,10,03,00,36,906.77
2022,10,03,00,37,906.77
2022,10,03,00,38,906.77
2022,10,03,00,39,906.77
2022,10,03,00,40,906.77
2022,10,03,00,41,906.77
2022,10,03,00,42,906.77
2022,10,03,00,43,906.77
2022,10,03,00,44,906.77
2022,10,03,00,45,906.77
2022,10,03,00,46,906.77
2022,10,03,00,47,906.77
2022,10,03,00,48,906.77
2022,10,03,00,49,906.77
2022,10,03,00,50,906.77
2022,10,03,00,51,906.77
2022,10,03,00,52,906.77
2022,10,03,00,53,906.77
2022,10,03,00,54,906.77
2022,10,03,00,55,906.77
2022,10,03,00,56,906.77
2022,10,03,00,57,906.77
2022,10,03,00,58,906.77
2022,10,03,00,59,906.77
2022,10,03,01,00,906.77
2022,10,03,01,01,906.77
2022,10,03,01,02,906.77
2022,10,03,01,03,906.77
2022,10,03,01,04,906.77
2022,10,03,01,05,906.77
2022,10,03,01,06,906.77
2022,10,03,01,07,906.77
2022,10,03,01,08,906.77
2022,10,03,01,09,906.77
2022,10,03,01,10,906.77
2022,10,03,01,11,906.77
2022,10,03,01,12,906.77
2022,10,03,01,13,906.77
2022,10,03,01,14,906.77
2022,10,03,01,15,906.77
2022,10,03,01,16,906.77
2022,10,03,01,17,906.77
2022,10,03,01,18,906.77
2022,10,03,01,19,906.77
2022,10,03,01,20,906.77
2022,10,03,01,21,906.77
2022,10,03,01,22,906.77
2022,10,03,01,23,906.77
2022,10,03,01,24,906.77
2022,10,03,01,25,906.77
2022,10,03,01,26,906.77
2022,10,03,01,27,906.77
2022,10,03,01,28,906.77
2022,10,03,01,29,906.77
2022,10,03,01,30,906.77
2022,10,03,01,31,906.77
2022,10,03,01,32,906.77
2022,10,03,01,33,906.77
2022,10,03,01,34,906.77
2022,10,03,01,35,906.77
2022,10,03,01,36,906.77
2022,10,03,01,37,906.77
2022,10,03,01,38,906.77
2022,10,03,01,39,906.77
2022,10,03,01,40,906.77
2022,10,03,01,41,906.77
2022,10,03,01,42,906.77
2022,10,03,01,43,906.77
2022,10,03,01,44,906.77
2022,10,03,01,45,906.77
2022,10,03,01,46,906.77
2022,10,03,01,47,906.77
2022,10,03,01,48,906.77
2022,10,03,01,49,906.77
2022,10,03,01,50,906.77
2022,10,03,01,51,906.77
2022,10,03,01,52,906.77
2022,10,03,01,53,906.77
2022,10,03,01,54,906.77
2022,10,03,01,55,906.77
2022,10,03,01,56,906.77
2022,10,03,01,57,906.77
2022,10,03,01,58,906.77
2022,10,03,01,59,906.77
2022,10,03,02,00,906.77
2022,10,03,02,01,906.77
2022,10,03,02,02,906.77
2022,10,03,02,03,906.77
2022,10,03,02,04,906.77
2022,10,03,02,05,906.77
2022,10,03,02,06,906.77
2022,10,03,02,07,906.77
2022,10,03,02,08,906.77
2022,10,03,02,09,906.77
2022,10,03,02,10,906.77
2022,10,03,02,11,906.77
2022,10,03,02,12,906.77
2022,10,03,02,13,906.77
2022,10,03,02,14,906.77
2022,10,03,02,15,906.77
2022,10,03,02,16,906.77
2022,10,03,02,17,906.77
2022,10,03,02,18,906.77
2022,10,03,02,19,906.77
2022,10,03,02,20,906.77
2022,10,03,02,21,906.77
2022,10,03,02,22,906.77
2022,10,03,02,23,906.77
2022,10,03,02,24,906.77
2022,10,03,02,25,906.77
2022,10,03,02,26,906.77
2022,10,03,02,27,906.77
2022,10,03,02,28,906.77
2022,10,03,02,29,906.77
2022,10,03,02,30,906.77
2022,10,03,02,31,906.77
2022,10,03,02,32,906.77
2022,10,03,02,33,906.77
2022,10,03,02,34,906.77
2022,10,03,02,35,906.77
2022,10,03,02,36,906.77
2022,10,03,02,37,906.77
2022,10,03,02,38,906.77
2022,10,03,02,39,906.77
2022,10,03,02,40,906.77
2022,10,03,02,41,906.77
2022,10,03,02,42,906.77
2022,10,03,02,43,906.77
2022,10,03,02,44,906.77
2022,10,03,02,45,906.77
2022,10,03,02,46,906.77
2022,10,03,02,47,906.77
2022,10,03,02,48,906.77
2022,10,03,02,49,906.77
2022,10,03,02,50,906.77
2022,10,03,02,51,906.77
2022,10,03,02,52,906.77
2022,10,03,02,53,906.77
2022,10,03,02,54,906.77
2022,10,03,02,55,906.77
2022,10,03,02,56,906.77
2022,10,03,02,57,906.77
2022,10,03,02,58,906.77
2022,10,03,02,59,906.77
2022,10,03,03,00,906.77
2022,10,03,03,01,906.77
2022,10,03,03,02,906.77
2022,10,03,03,03,906.77
2022,10,03,03,06,906.77
2022,10,03,03,07,906.77
2022,10,03,03,08,906.77
2022,10,03,03,09,906.77
2022,10,03,03,10,906.77
2022,10,03,03,11,906.77
2022,10,03,03,12,906.77
2022,10,03,03,13,906.77
2022,10,03,03,14,906.77
2022,10,03,03,15,906.77
2022,10,03,03,16,906.77
2022,10,03,03,17,906.77
2022,10,03,03,18,906.77
2022,10,03,03,19,906.77
2022,10,03,03,20,906.77
2022,10,03,03,21,906.77
2022,10,03,03,22,906.77
2022,10,03,03,23,906.77
2022,10,03,03,24,906.77
2022,10,03,03,25,906.77
2022,10,03,03,26,906.77
2022,10,03,03,27,906.77
2022,10,03,03,28,906.77
2022,10,03,03,29,906.77
2022,10,03,03,30,906.77
2022,10,03,03,31,906.77
2022,10,03,03,32,906.77
2022,10,03,03,33,906.77
2022,10,03,03,34,906.77
2022,10,03,03,35,906.77
2022,10,03,03,36,906.77
2022,10,03,03,37,906.77
2022,10,03,03,38,906.77
2022,10,03,03,39,906.77
2022,10,03,03,40,906.77
2022,10,03,03,41,906.77
2022,10,03,03,42,906.77
2022,10,03,03,43,906.77
2022,10,03,03,44,906.77
2022,10,03,03,45,906.77
2022,10,03,03,46,906.77
2022,10,03,03,47,906.77
2022,10,03,03,48,906.77
2022,10,03,03,49,906.77
2022,10,03,03,50,906.77
2022,10,03,03,51,906.77
2022,10,03,03,52,906.77
2022,10,03,03,53,906.77
2022,10,03,03,54,906.77
2022,10,03,03,55,906.77
2022,10,03,03,56,906.77
2022,10,03,03,57,906.77
2022,10,03,03,58,906.77
2022,10,03,03,59,906.77
2022,10,03,04,00,906.77
2022,10,03,04,01,906.77
2022,10,03,04,02,906.77
2022,10,03,04,03,906.77
2022,10,03,04,04,906.77
2022,10,03,04,05,906.77
2022,10,03,04,06,906.77
2022,10,03,04,07,906.77
2022,10,03,04,08,906.77
2022,10,03,04,09,906.77
2022,10,03,04,10,906.77
2022,10,03,04,11,906.77
2022,10,03,04,12,906.77
2022,10,03,04,13,906.77
2022,10,03,04,14,906.77
2022,10,03,04,15,906.77
2022,10,03,04,16,906.77
2022,10,03,04,17,906.77
2022,10,03,04,18,906.77
2022,10,03,04,19,906.77
2022,10,03,04,20,906.77
2022,10,03,04,21,906.77
2022,10,03,04,22,906.77
2022,10,03,04,23,906.77
2022,10,03,04,24,906.77
2022,10,03,04,25,906.77
2022,10,03,04,26,906.77
2022,10,03,04,27,906.77
2022,10,03,04,28,906.77
2022,10,03,04,29,906.77
2022,10,03,04,30,906.77
2022,10,03,04,31,906.77
2022,10,03,04,32,906.77
2022,10,03,04,33,906.77
2022,10,03,04,34,906.77
2022,10,03,04,35,906.77
2022,10,03,04,36,906.77
2022,10,03,04,37,906.77
2022,10,03,04,38,906.77
2022,10,03,04,39,906.77
2022,10,03,04,40,906.77
2022,10,03,04,41,906.77
2022,10,03,04,42,906.77
2022,10,03,04,43,906.77
2022,10,03,04,44,906.77
2022,10,03,04,45,906.77
2022,10,03,04,46,906.77
2022,10,03,04,47,906.77
2022,10,03,04,48,906.77
2022,10,03,04,49,906.77
2022,10,03,04,50,906.77
2022,10,03,04,51,906.77
2022,10,03,04,52,906.77
2022,10,03,04,53,906.77
2022,10,03,04,54,906.77
2022,10,03,04,55,906.77
2022,10,03,04,56,906.77
2022,10,03,04,57,906.77
2022,10,03,04,58,906.77
2022,10,03,04,59,906.77
2022,10,03,05,00,906.77
2022,10,03,05,01,906.77
2022,10,03,05,02,906.77
2022,10,03,05,03,906.77
2022,10,03,05,04,906.77
2022,10,03,05,05,906.77
2022,10,03,05,06,906.77
2022,10,03,05,07,906.77
2022,10,03,05,08,906.77
2022,10,03,05,09,906.77
2022,10,03,05,10,906.77
2022,10,03,05,11,906.77
2022,10,03,05,12,906.77
2022,10,03,05,13,906.77
2022,10,03,05,14,906.77
2022,10,03,05,15,906.77
2022,10,03,05,16,906.77
2022,10,03,05,17,906.77
2022,10,03,05,18,906.77
2022,10,03,05,19,906.77
2022,10,03,05,20,906.77
2022,10,03,05,21,906.77
2022,10,03,05,22,906.77
2022,10,03,05,23,906.77
2022,10,03,05,24,906.77
2022,10,03,05,25,906.77
2022,10,03,05,26,906.77
2022,10,03,05,27,906.77
2022,10,03,05,28,906.77
2022,10,03,05,29,906.77
2022,10,03,05,30,906.77
2022,10,03,05,31,906.77
2022,10,03,05,32,906.77
2022,10,03,05,33,906.77
2022,10,03,05,34,906.77
2022,10,03,05,35,906.77
2022,10,03,05,36,906.77
2022,10,03,05,37,906.77
2022,10,03,05,38,906.77
2022,10,03,05,39,906.77
2022,10,03,05,40,906.77
2022,10,03,05,41,906.77
2022,10,03,05,42,906.77
2022,10,03,05,43,906.77
2022,10,03,05,44,906.77
2022,10,03,05,45,906.77
2022,10,03,05,46,906.77
2022,10,03,05,47,906.77
2022,10,03,05,48,906.77
2022,10,03,05,49,906.77
2022,10,03,05,50,906.77
2022,10,03,05,51,906.77
2022,10,03,05,52,906.77
2022,10,03,05,53,906.77
2022,10,03,05,54,906.77
2022,10,03,05,55,906.77
2022,10,03,05,56,906.77
2022,10,03,05,57,906.77
2022,10,03,05,58,906.77
2022,10,03,05,59,906.77
2022,10,03,06,00,906.77
2022,10,03,06,01,906.77
2022,10,03,06,02,906.77
2022,10,03,06,03,906.77
2022,10,03,06,04,906.77
2022,10,03,06,05,906.77
2022,10,03,06,06,906.77
2022,10,03,06,07,906.77
2022,10,03,06,08,906.77
2022,10,03,06,09,906.77
2022,10,03,06,10,906.77
2022,10,03,06,11,906.77
2022,10,03,06,12,906.77
2022,10,03,06,13,906.77
2022,10,03,06,14,906.77
2022,10,03,06,15,906.77
2022,10,03,06,16,906.77
2022,10,03,06,17,906.77
2022,10,03,06,18,906.77
2022,10,03,06,19,906.77
2022,10,03,06,20,906.77
2022,10,03,06,21,906.77
2022,10,03,06,22,906.77
2022,10,03,06,23,906.77
2022,10,03,06,24,906.77
2022,10,03,06,25,906.77
2022,10,03,06,26,906.77
2022,10,03,06,27,906.77
2022,10,03,06,28,906.77
2022,10,03,06,29,906.77
2022,10,03,06,30,906.77
2022,10,03,06,31,906.77
2022,10,03,06,32,906.77
2022,10,03,06,33,906.77
2022,10,03,06,34,906.77
2022,10,03,06,35,906.77
2022,10,03,06,36,906.77
2022,10,03,06,37,906.77
2022,10,03,06,38,906.77
2022,10,03,06,39,906.77
2022,10,03,06,40,906.77
2022,10,03,06,41,906.77
2022,10,03,06,42,906.77
2022,10,03,06,43,906.77
2022,10,03,06,44,906.77
2022,10,03,06,45,906.77
2022,10,03,06,46,906.77
2022,10,03,06,47,906.77
2022,10,03,06,48,906.77
2022,10,03,06,49,906.77
2022,10,03,06,50,906.77
2022,10,03,06,51,906.77
2022,10,03,06,52,906.77
2022,10,03,06,53,906.77
2022,10,03,06,54,906.77
2022,10,03,06,55,906.77
2022,10,03,06,56,906.77
2022,10,03,06,57,906.77
2022,10,03,06,58,906.77
2022,10,03,06,59,906.77
2022,10,03,07,00,906.77
2022,10,03,07,01,906.77
2022,10,03,07,02,906.77
2022,10,03,07,03,906.77
2022,10,03,07,04,906.77
2022,10,03,07,05,906.77
2022,10,03,07,06,906.77
2022,10,03,07,07,906.77
2022,10,03,07,08,906.77
2022,10,03,07,09,906.77
2022,10,03,07,10,906.77
2022,10,03,07,11,906.77
2022,10,03,07,12,906.77
2022,10,03,07,13,906.77
2022,10,03,07,14,906.77
2022,10,03,07,15,906.77
2022,10,03,07,16,906.77
2022,10,03,07,17,906.77
2022,10,03,07,18,906.77
2022,10,03,07,19,906.77
2022,10,03,07,20,906.77
2022,10,03,07,21,906.77
2022,10,03,07,22,906.77
2022,10,03,07,23,906.77
2022,10,03,07,24,906.77
2022,10,03,07,25,906.77
2022,10,03,07,26,906.77
2022,10,03,07,27,906.77
2022,10,03,07,28,906.77
2022,10,03,07,29,906.77
2022,10,03,07,30,906.77
2022,10,03,07,31,906.77
2022,10,03,07,32,906.77
2022,10,03,07,33,906.77
2022,10,03,07,34,906.77
2022,10,03,07,35,906.77
2022,10,03,07,36,906.77
2022,10,03,07,37,906.77
2022,10,03,07,38,906.77
2022,10,03,07,39,906.77
2022,10,03,07,40,906.77
2022,10,03,07,41,906.77
2022,10,03,07,42,906.77
2022,10,03,07,43,906.77
2022,10,03,07,44,906.77
2022,10,03,07,45,906.77
2022,10,03,07,46,906.77
2022,10,03,07,47,906.77
2022,10,03,07,48,906.77
2022,10,03,07,49,906.77
2022,10,03,07,50,906.77
2022,10,03,07,51,906.77
2022,10,03,07,52,906.77
2022,10,03,07,53,906.77
2022,10,03,07,54,906.77
2022,10,03,07,55,906.77
2022,10,03,07,56,906.77
2022,10,03,07,57,906.77
2022,10,03,07,58,906.77
2022,10,03,07,59,906.77
2022,10,03,08,00,906.77
2022,10,03,08,01,906.77
2022,10,03,08,02,906.77
2022,10,03,08,03,906.77
2022,10,03,08,04,906.77
2022,10,03,08,05,906.77
2022,10,03,08,06,906.77
2022,10,03,08,07,906.77
2022,10,03,08,08,906.77
2022,10,03,08,09,906.77
2022,10,03,08,10,906.77
2022,10,03,08,11,906.77
2022,10,03,08,12,906.77
2022,10,03,08,13,906.77
2022,10,03,08,14,906.77
2022,10,03,08,15,906.77
2022,10,03,08,16,906.77
2022,10,03,08,17,906.77
2022,10,03,08,18,906.77
2022,10,03,08,19,906.77
2022,10,03,08,20,906.77
2022,10,03,08,21,906.77
2022,10,03,08,22,906.77
2022,10,03,08,23,906.77
2022,10,03,08,24,906.77
2022,10,03,08,25,906.77
2022,10,03,08,26,906.77
2022,10,03,08,27,906.77
2022,10,03,08,28,906.77
2022,10,03,08,29,906.77
2022,10,03,08,30,906.77
2022,10,03,08,31,906.77
2022,10,03,08,32,906.77
2022,10,03,08,33,906.77
2022,10,03,08,34,906.77
2022,10,03,08,35,906.77
2022,10,03,08,36,906.77
2022,10,03,08,37,906.77
2022,10,03,08,38,906.77
2022,10,03,08,39,906.77
2022,10,03,08,40,906.77
2022,10,03,08,41,906.77
2022,10,03,10,45,966.10
2022,10,03,10,46,966.10
2022,10,03,10,47,969.16
2022,10,03,10,48,978.36
2022,10,03,10,49,978.36
2022,10,03,10,50,978.36
2022,10,03,10,51,974.76
2022,10,03,10,52,963.97
2022,10,03,10,53,963.97
2022,10,03,10,54,963.97
2022,10,03,10,55,963.97
2022,10,03,10,56,963.97
2022,10,03,10,57,963.97
2022,10,03,10,58,963.97
2022,10,03,10,59,963.97
2022,10,03,11,00,963.97
2022,10,03,11,01,963.97
2022,10,03,11,02,963.97
2022,10,03,11,03,963.97
2022,10,03,11,04,963.97
2022,10,03,11,05,963.97
2022,10,03,11,06,963.64
2022,10,03,11,07,962.65
2022,10,03,11,08,962.65
2022,10,03,11,09,962.65
2022,10,03,11,10,962.65
2022,10,03,11,11,962.65
2022,10,03,11,12,963.17
2022,10,03,11,13,964.76
2022,10,03,11,14,964.76
2022,10,03,11,15,964.68
2022,10,03,11,16,964.68
2022,10,03,11,17,964.54
2022,10,03,11,18,963.89
2022,10,03,11,19,963.63
2022,10,03,11,20,963.63
2022,10,03,11,21,963.63
2022,10,03,11,22,963.63
2022,10,03,11,23,963.22
2022,10,03,11,24,961.69
2022,10,03,11,25,962.04
2022,10,03,11,26,962.04
2022,10,03,11,27,962.04
2022,10,03,11,28,964.16
2022,10,03,11,29,970.54
2022,10,03,11,30,970.34
2022,10,03,11,31,969.76
2022,10,03,11,32,969.66
2022,10,03,11,33,969.33
2022,10,03,11,34,969.51
2022,10,03,11,35,969.21
2022,10,03,11,36,968.65
2022,10,03,11,37,968.41
2022,10,03,11,38,968.95
2022,10,03,11,39,968.95
2022,10,03,11,40,965.06
2022,10,03,11,41,953.40
2022,10,03,11,42,952.66
2022,10,03,11,43,950.46
2022,10,03,11,44,950.46
2022,10,03,11,45,950.46
2022,10,03,11,46,950.46
2022,10,03,11,47,950.46
2022,10,03,11,48,950.46
2022,10,03,11,49,950.46
2022,10,03,11,50,950.46
2022,10,03,11,51,950.46
2022,10,03,11,52,950.46
2022,10,03,11,53,950.46
2022,10,03,11,54,950.46
2022,10,03,11,55,950.89
2022,10,03,11,56,952.31
2022,10,03,11,57,952.52
2022,10,03,11,58,952.78
2022,10,03,11,59,953.54
2022,10,03,12,00,953.54
2022,10,03,12,01,953.54
2022,10,03,12,02,953.54
2022,10,03,12,03,951.16
2022,10,03,12,04,941.65
2022,10,03,12,05,941.65
2022,10,03,12,06,941.65
2022,10,03,12,07,941.65
2022,10,03,12,08,941.65
2022,10,03,12,09,941.65
2022,10,03,12,10,941.65
2022,10,03,12,11,941.65
2022,10,03,12,12,941.65
2022,10,03,12,13,941.65
2022,10,03,12,14,941.65
2022,10,03,12,15,941.65
2022,10,03,12,16,941.65
2022,10,03,12,17,941.65
2022,10,03,12,18,941.65
2022,10,03,12,19,941.65
2022,10,03,12,20,941.65
2022,10,03,12,21,941.65
2022,10,03,12,22,941.65
2022,10,03,12,23,941.65
2022,10,03,12,24,941.65
2022,10,03,12,25,941.65
2022,10,03,12,26,941.65
2022,10,03,12,27,941.65
2022,10,03,12,28,941.65
2022,10,03,12,29,941.65
2022,10,03,12,30,941.65
2022,10,03,12,31,941.65
2022,10,03,12,32,941.65
2022,10,03,12,33,941.65
2022,10,03,12,34,941.66
2022,10,03,12,35,941.69
2022,10,03,12,36,941.70
2022,10,03,12,37,941.73
2022,10,03,12,38,941.76
2022,10,03,12,39,941.76
2022,10,03,12,40,941.76
2022,10,03,12,41,941.76
2022,10,03,12,42,941.76
2022,10,03,12,43,941.76
2022,10,03,12,44,941.76
2022,10,03,12,45,941.76
2022,10,03,12,46,941.76
2022,10,03,12,47,941.76
2022,10,03,12,48,941.76
2022,10,03,12,49,941.76
2022,10,03,12,50,941.76
2022,10,03,12,51,941.76
2022,10,03,12,52,941.76
2022,10,03,12,53,941.76
2022,10,03,12,54,941.76
2022,10,03,12,55,941.76
2022,10,03,12,56,941.76
2022,10,03,12,57,941.76
2022,10,03,12,58,941.76
2022,10,03,12,59,941.76
2022,10,03,13,00,941.76
2022,10,03,13,01,941.76
2022,10,03,13,02,941.76
2022,10,03,13,03,941.76
2022,10,03,13,04,941.76
2022,10,03,13,05,941.76
2022,10,03,13,06,941.76
2022,10,03,13,07,941.76
2022,10,03,13,08,941.76
2022,10,03,13,09,941.76
2022,10,03,13,10,941.76
2022,10,03,13,11,941.76
2022,10,03,13,12,941.76
2022,10,03,13,13,941.76
2022,10,03,13,14,941.76
2022,10,03,13,15,941.76
2022,10,03,13,16,941.76
2022,10,03,13,17,941.76
2022,10,03,13,18,941.76
2022,10,03,13,19,941.76
2022,10,03,13,20,941.76
2022,10,03,13,21,941.76
2022,10,03,13,22,941.76
2022,10,03,13,23,941.76
2022,10,03,13,24,941.76
2022,10,03,13,25,941.76
2022,10,03,13,26,941.76
2022,10,03,13,27,941.76
2022,10,03,13,28,941.76
2022,10,03,13,29,941.76
2022,10,03,13,30,941.76
2022,10,03,13,31,941.76
2022,10,03,13,32,941.76
2022,10,03,13,33,941.76
2022,10,03,13,34,941.76
2022,10,03,13,35,941.76
2022,10,03,13,36,941.76
2022,10,03,13,37,941.76
2022,10,03,13,38,941.76
2022,10,03,13,39,941.76
2022,10,03,13,40,941.76
2022,10,03,13,41,941.76
2022,10,03,13,42,941.76
2022,10,03,13,43,941.76
2022,10,03,13,44,941.76
2022,10,03,13,45,941.76
2022,10,03,13,46,941.76
2022,10,03,13,47,941.76
2022,10,03,13,48,941.76
2022,10,03,13,49,941.76
2022,10,03,13,50,941.76
2022,10,03,13,51,941.76
2022,10,03,13,52,941.77
2022,10,03,13,53,941.78
2022,10,03,13,54,941.78
2022,10,03,13,55,941.86
2022,10,03,13,56,941.84
2022,10,03,13,57,941.78
2022,10,03,13,58,941.86
2022,10,03,13,59,941.86
2022,10,03,14,00,941.86
2022,10,03,14,01,941.86
2022,10,03,14,02,941.86
2022,10,03,14,03,941.86
2022,10,03,14,04,941.86
2022,10,03,14,05,941.86
2022,10,03,14,06,941.86
2022,10,03,14,07,941.86
2022,10,03,14,08,941.86
2022,10,03,14,09,941.86
2022,10,03,14,10,941.86
2022,10,03,14,11,941.86
2022,10,03,14,12,941.86
2022,10,03,14,13,941.86
2022,10,03,14,14,941.86
2022,10,03,14,15,941.86
2022,10,03,14,16,941.86
2022,10,03,14,17,941.86
2022,10,03,14,18,941.86
2022,10,03,14,19,941.86
2022,10,03,14,20,941.86
2022,10,03,14,21,941.86
2022,10,03,14,22,941.86
2022,10,03,14,23,941.86
2022,10,03,14,24,941.86
2022,10,03,14,25,941.86
2022,10,03,14,26,941.86
2022,10,03,14,27,941.86
2022,10,03,14,28,941.86
2022,10,03,14,29,941.86
2022,10,03,14,30,941.86
2022,10,03,14,31,941.86
2022,10,03,14,32,941.86
2022,10,03,14,33,941.86
2022,10,03,14,34,941.86
2022,10,03,14,35,941.86
2022,10,03,14,36,941.86
2022,10,03,14,37,941.86
2022,10,03,14,38,941.86
2022,10,03,14,39,941.86
2022,10,03,14,40,941.86
2022,10,03,14,41,941.86
2022,10,03,14,42,941.86
2022,10,03,14,43,941.86
2022,10,03,14,44,941.86
2022,10,03,14,45,941.86
2022,10,03,14,46,941.86
2022,10,03,14,47,941.86
2022,10,03,14,48,941.86
2022,10,03,14,49,941.86
2022,10,03,14,50,941.86
2022,10,03,14,51,941.86
2022,10,03,14,52,941.86
2022,10,03,14,53,941.86
2022,10,03,14,54,941.86
2022,10,03,14,55,941.86
2022,10,03,14,56,941.85
2022,10,03,14,57,941.79
2022,10,03,14,58,941.78
2022,10,03,14,59,941.76
2022,10,03,15,00,941.76
2022,10,03,15,01,941.76
2022,10,03,15,02,941.76
2022,10,03,15,03,941.76
2022,10,03,15,04,941.76
2022,10,03,15,05,941.76
2022,10,03,15,06,941.76
2022,10,03,15,07,941.76
2022,10,03,15,08,941.76
2022,10,03,15,09,941.76
2022,10,03,15,10,941.76
2022,10,03,15,11,941.76
2022,10,03,15,12,941.76
2022,10,03,15,13,941.76
2022,10,03,15,14,941.76
2022,10,03,15,15,941.76
2022,10,03,15,16,941.76
2022,10,03,15,17,941.76
2022,10,03,15,18,941.76
2022,10,03,15,19,941.76
2022,10,03,15,20,941.76
2022,10,03,15,21,941.76
2022,10,03,15,22,941.76
2022,10,03,15,23,941.76
2022,10,03,15,24,941.76
2022,10,03,15,25,941.76
2022,10,03,15,26,941.76
2022,10,03,15,27,941.75
2022,10,03,15,28,941.71
2022,10,03,15,29,941.68
2022,10,03,15,30,941.65
2022,10,03,15,31,941.65
2022,10,03,15,32,941.65
2022,10,03,15,33,941.65
2022,10,03,15,34,941.65
2022,10,03,15,35,941.65
2022,10,03,15,36,941.65
2022,10,03,15,37,941.65
2022,10,03,15,38,941.65
2022,10,03,15,39,941.65
2022,10,03,15,40,941.65
2022,10,03,15,41,941.65
2022,10,03,15,42,941.65
2022,10,03,15,43,941.65
2022,10,03,15,44,941.65
2022,10,03,15,45,941.65
2022,10,03,15,46,941.65
2022,10,03,15,47,941.65
2022,10,03,15,48,941.65
2022,10,03,15,49,941.65
2022,10,03,15,50,941.65
2022,10,03,15,51,941.65
2022,10,03,15,52,941.95
2022,10,03,15,53,943.14
2022,10,03,15,54,943.14
2022,10,03,15,55,943.14
2022,10,03,15,56,943.14
2022,10,03,15,57,943.14
2022,10,03,15,58,944.95
2022,10,03,15,59,952.19
2022,10,03,16,00,952.19
2022,10,03,16,01,952.19
2022,10,03,16,02,952.19
2022,10,03,16,03,952.19
2022,10,03,16,04,952.19
2022,10,03,16,05,950.41
2022,10,03,16,06,940.91
2022,10,03,16,07,940.91
2022,10,03,16,08,940.91
2022,10,03,16,09,940.91
2022,10,03,16,10,942.82
2022,10,03,16,11,950.46
2022,10,03,16,12,950.46
2022,10,03,16,13,950.46
2022,10,03,16,14,950.46
2022,10,03,16,15,950.46
2022,10,03,16,16,951.00
2022,10,03,16,17,953.17
2022,10,03,16,18,953.17
2022,10,03,16,19,953.17
2022,10,03,16,20,953.17
2022,10,03,16,21,953.17
2022,10,03,16,22,956.22
2022,10,03,16,23,968.44
2022,10,03,16,24,968.64
2022,10,03,16,25,969.40
2022,10,03,16,26,969.27
2022,10,03,16,27,969.03
2022,10,03,16,28,969.05
2022,10,03,16,29,969.15
2022,10,03,16,30,969.70
2022,10,03,16,31,969.73
2022,10,03,16,32,969.63
2022,10,03,16,33,969.68
2022,10,03,16,34,969.96
2022,10,03,16,35,970.09
2022,10,03,16,36,970.77
2022,10,03,16,37,970.82
2022,10,03,16,38,971.27
2022,10,03,16,39,971.21
2022,10,03,16,40,971.01
2022,10,03,16,41,970.86
2022,10,03,16,42,970.40
2022,10,03,16,43,970.40
2022,10,03,16,44,970.40
2022,10,03,16,45,970.57
2022,10,03,16,46,971.25
2022,10,03,16,47,971.25
2022,10,03,16,48,971.25
2022,10,03,16,49,971.25
2022,10,03,16,50,971.25
2022,10,03,16,51,971.25
2022,10,03,16,52,971.25
2022,10,03,16,53,970.84
2022,10,03,16,54,968.41
2022,10,03,16,55,968.03
2022,10,03,16,56,968.03
2022,10,03,16,57,968.03
2022,10,03,16,58,968.03
2022,10,03,16,59,967.30
2022,10,03,17,00,964.21
2022,10,03,17,01,964.41
2022,10,03,17,02,965.54
2022,10,03,17,03,965.73
2022,10,03,17,04,965.49
2022,10,03,17,05,964.11
2022,10,03,17,06,964.11
2022,10,03,17,07,964.11
2022,10,03,17,08,964.42
2022,10,03,17,09,966.12
2022,10,03,17,10,965.83
2022,10,03,17,11,965.33
2022,10,03,17,12,965.41
2022,10,03,17,13,964.95
2022,10,03,17,14,965.05
2022,10,03,17,15,965.65
2022,10,03,17,16,965.87
2022,10,03,17,17,966.22
2022,10,03,17,18,967.69
2022,10,03,17,19,967.41
2022,10,03,17,20,966.42
2022,10,03,17,21,966.98
2022,10,03,17,22,966.98
2022,10,03,17,23,966.98
2022,10,03,17,24,966.98
2022,10,03,17,25,966.98
2022,10,03,17,26,966.98
2022,10,03,17,27,966.98
2022,10,03,17,28,966.98
2022,10,03,17,29,966.98
2022,10,03,17,30,968.21
2022,10,03,17,31,973.15
2022,10,03,17,32,973.15
2022,10,03,17,33,973.15
2022,10,03,17,34,973.15
2022,10,03,17,35,973.15
2022,10,03,17,36,973.15
2022,10,03,17,37,973.15
2022,10,03,17,38,973.15
2022,10,03,17,39,972.20
2022,10,03,17,40,966.80
2022,10,03,17,41,966.95
2022,10,03,17,42,967.26
2022,10,03,17,43,966.85
2022,10,03,17,44,966.95
2022,10,03,17,45,967.53
2022,10,03,17,46,967.67
2022,10,03,17,47,968.44
2022,10,03,17,48,968.51
2022,10,03,17,49,968.95
2022,10,03,17,50,969.21
2022,10,03,17,51,969.39
2022,10,03,17,52,969.41
2022,10,03,17,53,969.49
2022,10,03,17,54,969.49
2022,10,03,17,55,969.44
2022,10,03,17,56,969.17
2022,10,03,17,57,969.15
2022,10,03,17,58,969.12
2022,10,03,17,59,968.95
2022,10,03,18,00,968.95
2022,10,03,18,01,968.95
2022,10,03,18,02,968.97
2022,10,03,18,03,969.08
2022,10,03,18,04,969.08
2022,10,03,18,05,969.08
2022,10,03,18,06,969.05
2022,10,03,18,07,969.07
2022,10,03,18,08,969.10
2022,10,03,18,09,968.81
2022,10,03,18,10,968.82
2022,10,03,18,11,968.83
2022,10,03,18,12,968.54
2022,10,03,18,13,968.54
2022,10,03,18,14,968.54
2022,10,03,18,15,968.54
2022,10,03,18,16,968.54
2022,10,03,18,17,968.54
2022,10,03,18,18,968.54
2022,10,03,18,19,968.54
2022,10,03,18,20,968.54
2022,10,03,18,21,968.54
2022,10,03,18,22,968.54
2022,10,03,18,23,968.54
2022,10,03,18,24,968.54
2022,10,03,18,25,968.54
2022,10,03,18,26,968.54
2022,10,03,18,27,968.54
2022,10,03,18,28,968.54
2022,10,03,18,29,968.54
2022,10,03,18,30,968.54
2022,10,03,18,31,968.54
2022,10,03,18,32,968.54
2022,10,03,18,33,968.54
2022,10,03,18,34,968.54
2022,10,03,18,35,968.54
2022,10,03,18,36,968.54
2022,10,03,18,37,968.54
2022,10,03,18,38,968.54
2022,10,03,18,39,968.54
2022,10,03,18,40,968.54
2022,10,03,18,41,968.54